"Pseudo-MPEC" for C1RUUM2

Created 2020 Jan 15 22:07:04 UT using Find_Orb

Click here for an explanation of pseudo-MPECs

 
 Astrometry: 
     C1RUUM2  C2020 01 14.31964 08 39 04.85 +54 31 31.4    ~1E8M 20.4 GVNEOCPG96
     C1RUUM2  C2020 01 14.32489 08 39 01.43 +54 30 46.3    ~1E8M 20.6 GVNEOCPG96
     C1RUUM2  C2020 01 14.33015 08 38 57.98 +54 30 00.9    ~1E8M 20.0 GVNEOCPG96
     C1RUUM2  C2020 01 14.33541 08 38 54.53 +54 29 15.5    ~1E8M 19.9 GVNEOCPG96
     C1RUUM2  C2020 01 14.35721608 38 39.46 +54 26 02.3    ~1E9M 19.9 GVNEOCPH01
     C1RUUM2  C2020 01 14.36403808 38 35.01 +54 25 02.3    ~1E9M 19.6 GVNEOCPH01
     C1RUUM2  C2020 01 14.37117808 38 30.35 +54 23 59.3    ~1E9M 20.2 GVNEOCPH01
     C1RUUM2  C2020 01 14.37820508 38 25.78 +54 22 57.0    ~1E9M 20.2 GVNEOCPH01
     C1RUUM2  C2020 01 14.40685 08 38 07.85 +54 18 46.2    ~1EA7 19.8 GVNEOCPI52
     C1RUUM2  C2020 01 14.40806 08 38 06.99 +54 18 35.4    ~1EA7 20.1 GVNEOCPI52
     C1RUUM2  C2020 01 14.40928 08 38 06.19 +54 18 24.2    ~1EA7 20.1 GVNEOCPI52
     C1RUUM2  C2020 01 14.41049 08 38 05.48 +54 18 13.4    ~1EA7 19.8 GVNEOCPI52
     C1RUUM2  C2020 01 15.44959 08 28 15.93 +51 37 53.9    ~1FB7 20.1 GVNEOCPG96
     C1RUUM2  C2020 01 15.45040 08 28 15.42 +51 37 46.7    ~1FB7 19.7 GVNEOCPG96
     C1RUUM2  C2020 01 15.45477 08 28 12.76 +51 37 01.8    ~1FB7 20.0 GVNEOCPG96
     C1RUUM2  C2020 01 15.45573 08 28 12.18 +51 36 52.2    ~1FB7 19.8 GVNEOCPG96
     C1RUUM2  C2020 01 15rSXLxvT9nEVAAstrometrywv(r(%1FiCCPj[]9!$KMX)T0Y.$MS4246
     C1RUUM2  C2020 01 15I*0+8dh9-1\]qAosEAW$.B^FeJ4hTxN1k8y*Fdf]f^$\1$We5[tW246
     C1RUUM2  C2020 01 15sjW_nk'IDU45Hg?HQ++rCd.TBe@redacted;Wnit^F3Sl:V6JjKL246
     C1RUUM2  C2020 01 151DtbOYZsCh'?-Gw.;f(Tfo-2ccH3-M9q3Z!motj]U0E#aSr'5Lm*246
     C1RUUM2  C2020 01 153Gv(5]0NU'j(c_VSv2=Ai$ta_chSG!3oRo^5%2E-N5i7tEpfblUA246
     C1RUUM2  C2020 01 15@p*^3+`FT8p8'uK\y;ki6:lx,!sLclickq0hereV3p4pb^/iY4pp246
     C1RUUM2  C2020 01 15gevXUVnoGforU#t'Ntl^b.TexplanationPXp4A`GU0=CumU*#$S246

Station data:
(246) Klet Observatory-KLENOT  (N48.863293 E14.288100)  Czech Republic.
   1.06-m KLENOT telescope.
(G96) Mt. Lemmon Survey  (N32.442754 W110.788720)  US/Arizona.  Observers T.
   A. Pruyne, B. M. Africano, E. J. Christensen, G. A. Farneth, D. C. Fuls,
   A. R. Gibbs, A. D. Grauer, H. Gröller, J. A. Johnson, R. A. Kowalski, S.
   M. Larson, G. J. Leonard, D. Rankin, R. L. Seaman, F. C. Shelly. 1.5-m
   reflector + 10K CCD.
(H01) Magdalena Ridge Observatory, Socorro  (N33.984833 W107.189333)  US/New
   Mexico.  Observers W. H. Ryan, E. V. Ryan. Measurer W. H. Ryan. 2.4-m
   f/8.9 reflector + CCD.
(I52) Steward Observatory, Mt. Lemmon Station  (N32.442547 W110.788920)
   US/Arizona.  Observers T. A. Pruyne, B. M. Africano, E. J. Christensen, G.
   A. Farneth, D. C. Fuls, A. R. Gibbs, A. D. Grauer, H. Gröller, J. A.
   Johnson, R. A. Kowalski, S. M. Larson, G. J. Leonard, D. Rankin, R. L.
   Seaman, F. C. Shelly. 1.0-m reflector + CCD.

Orbital elements:  C1RUUM2
   Perihelion 2020 Jan 28.739187 +/- 0.242 TT = 17:44:25 (JD 2458877.239187)
Epoch 2020 Jan 15.0 TT = JDT 2458863.5   Earth MOID: 0.0556   AutoNEOCP
M 348.19560184 +/- 0.20             (J2000 ecliptic)
n   0.85917734 +/- 0.000494         Peri.  184.77252 +/- 0.23
a   1.09584090 +/- 0.00042          Node   302.20250 +/- 0.0040
e   0.0512843 +/- 0.000243          Incl.   14.06979 +/- 0.033
P   1.15/419.00d           H 24.7   G  0.15   U  7.6  
q 1.03964140 +/- 0.000156    Q 1.15204039 +/- 0.000702
From 23 observations 2020 Jan. 14-15 (37.0 hr); mean residual 0".32
Residuals in arcseconds: 
200114 G96  .09-  .14+    200114 I52  .40+  .05-    200115 246  .05+  .90+    
200114 G96  .06+  .15+    200114 I52  .24-  .01-    200115 246  .06-  1.2-    
200114 G96  .03+  .07+    200114 I52  .31-  .27-    200115 246  .18-  .76+    
200114 G96  .01+  .11+    200114 I52  .36+  .21-    200115 246  .23+  .28-    
200114 H01  .15-  .04+    200115 G96  .03+  .24-    200115 246  .04-  .18-    
200114 H01  .07-  .04+    200115 G96  .10-  .71+    200115 246  .39-  .12-    
200114 H01  .05-  .05+    200115 G96  .01-  .20-    200115 246  .41+  .05+    
200114 H01  .07+  .02-    200115 G96  .04+  .13-    

Ephemerides (geocentric):
Date (UTC) HH   RA              Dec         delta   r     elong  mag " sig PA
---- -- -- --  -------------   -----------  ------ ------ -----  --- ---- ---
2020 01 15 22  08 24 08.073   +50 20 15.59  .06550 1.0408 149.9 20.1 .094  83
2020 01 15 23  08 23 45.565   +50 13 12.61  .06541 1.0408 150.1 20.1 .106  79
2020 01 16 00  08 23 23.099   +50 06 08.04  .06532 1.0408 150.2 20.1 .119  75
2020 01 16 01  08 23 00.677   +49 59 01.90  .06523 1.0408 150.3 20.1 .133  72
2020 01 16 02  08 22 38.298   +49 51 54.18  .06514 1.0408 150.4 20.1 .147  69
2020 01 16 03  08 22 15.962   +49 44 44.88  .06504 1.0408 150.6 20.1 .163  67
2020 01 16 04  08 21 53.670   +49 37 34.01  .06496 1.0407 150.7 20.1 .180  65
2020 01 16 05  08 21 31.421   +49 30 21.55  .06487 1.0407 150.8 20.1 .197  63
2020 01 16 06  08 21 09.217   +49 23 07.52  .06478 1.0407 151.0 20.0 .215  61
2020 01 16 07  08 20 47.056   +49 15 51.91  .06469 1.0407 151.1 20.0 .235  59
2020 01 16 08  08 20 24.939   +49 08 34.72  .06460 1.0407 151.2 20.0 .255  58
2020 01 16 09  08 20 02.865   +49 01 15.95  .06451 1.0407 151.4 20.0 .276  56
2020 01 16 10  08 19 40.836   +48 53 55.62  .06442 1.0407 151.5 20.0 .297  55
2020 01 16 11  08 19 18.851   +48 46 33.70  .06434 1.0407 151.6 20.0 .320  54
2020 01 16 12  08 18 56.910   +48 39 10.21  .06425 1.0407 151.8 20.0 .344  53
2020 01 16 13  08 18 35.014   +48 31 45.15  .06417 1.0407 151.9 20.0 .368  52
2020 01 16 14  08 18 13.162   +48 24 18.52  .06408 1.0407 152.0 20.0 .394  51
2020 01 16 15  08 17 51.354   +48 16 50.32  .06399 1.0407 152.2 20.0 .420  50
2020 01 16 16  08 17 29.591   +48 09 20.54  .06391 1.0407 152.3 20.0 .447  49
2020 01 16 17  08 17 07.872   +48 01 49.20  .06382 1.0407 152.5 20.0 .475  49
2020 01 16 18  08 16 46.198   +47 54 16.29  .06374 1.0406 152.6 20.0 .504  48
2020 01 16 19  08 16 24.569   +47 46 41.82  .06366 1.0406 152.7 20.0 .534  47
2020 01 16 20  08 16 02.984   +47 39 05.78  .06357 1.0406 152.9 20.0 .565  47
2020 01 16 21  08 15 41.445   +47 31 28.18  .06349 1.0406 153.0 19.9 .596  46
2020 01 16 22  08 15 19.950   +47 23 49.02  .06341 1.0406 153.1 19.9 .629  45
2020 01 16 23  08 14 58.500   +47 16 08.30  .06333 1.0406 153.3 19.9 .662  45
2020 01 17 00  08 14 37.096   +47 08 26.02  .06324 1.0406 153.4 19.9 .697  44
2020 01 17 01  08 14 15.736   +47 00 42.19  .06316 1.0406 153.5 19.9 .732  44
2020 01 17 02  08 13 54.422   +46 52 56.81  .06308 1.0406 153.7 19.9 .769  43
2020 01 17 03  08 13 33.153   +46 45 09.88  .06300 1.0406 153.8 19.9 .806  43
2020 01 17 04  08 13 11.929   +46 37 21.39  .06292 1.0406 154.0 19.9 .844  42
2020 01 17 05  08 12 50.750   +46 29 31.37  .06284 1.0406 154.1 19.9 .884  42
2020 01 17 06  08 12 29.617   +46 21 39.80  .06277 1.0406 154.2 19.9 .924  42
2020 01 17 07  08 12 08.529   +46 13 46.68  .06269 1.0406 154.4 19.9 .965  41
2020 01 17 08  08 11 47.487   +46 05 52.04  .06261 1.0406 154.5 19.9 1.01  41
2020 01 17 09  08 11 26.491   +45 57 55.85  .06253 1.0405 154.6 19.9 1.05  40
2020 01 17 10  08 11 05.540   +45 49 58.13  .06245 1.0405 154.8 19.9 1.09  40
2020 01 17 11  08 10 44.634   +45 41 58.89  .06238 1.0405 154.9 19.9 1.14  40
2020 01 17 12  08 10 23.775   +45 33 58.12  .06230 1.0405 155.1 19.8 1.19  39
2020 01 17 13  08 10 02.961   +45 25 55.82  .06223 1.0405 155.2 19.8 1.23  39
2020 01 17 14  08 09 42.193   +45 17 52.01  .06215 1.0405 155.3 19.8 1.28  39
2020 01 17 15  08 09 21.470   +45 09 46.68  .06208 1.0405 155.5 19.8 1.33  38
2020 01 17 16  08 09 00.794   +45 01 39.83  .06200 1.0405 155.6 19.8 1.38  38
2020 01 17 17  08 08 40.163   +44 53 31.48  .06193 1.0405 155.7 19.8 1.43  38
2020 01 17 18  08 08 19.579   +44 45 21.62  .06185 1.0405 155.9 19.8 1.48  37
2020 01 17 19  08 07 59.040   +44 37 10.26  .06178 1.0405 156.0 19.8 1.54  37
2020 01 17 20  08 07 38.548   +44 28 57.41  .06171 1.0405 156.2 19.8 1.59  37
2020 01 17 21  08 07 18.101   +44 20 43.05  .06164 1.0405 156.3 19.8 1.65  37